| time (UTC) | temp F | wind direction | speed MPH | gust MPH | rain 1hr in | rain 24hr in | rain mn in | humidity % | barometer mb |
| 20260505085830 | 58 | 185 | 0.0 | 1.0 | 0.00 | 0.15 | 0.15 | 92 | 1001.9 |
| 20260505085328 | 57 | 263 | 2.0 | 2.0 | 0.00 | 0.15 | 0.15 | 93 | 1001.9 |
| 20260505084825 | 57 | 200 | 1.0 | 1.0 | 0.00 | 0.15 | 0.15 | 94 | 1001.9 |
| 20260505084324 | 57 | 183 | 0.0 | 0.0 | 0.00 | 0.15 | 0.15 | 94 | 1001.9 |
| 20260505083820 | 57 | 183 | 0.0 | 0.0 | 0.00 | 0.15 | 0.15 | 94 | 1001.6 |
| 20260505083318 | 57 | 185 | 0.0 | 0.0 | 0.00 | 0.15 | 0.15 | 95 | 1001.9 |
| 20260505082814 | 57 | 190 | 0.0 | 1.0 | 0.00 | 0.15 | 0.15 | 95 | 1001.6 |
| 20260505082311 | 57 | 192 | 0.0 | 0.0 | 0.00 | 0.15 | 0.15 | 95 | 1001.6 |
| 20260505081807 | 57 | 213 | 1.0 | 1.0 | 0.00 | 0.15 | 0.15 | 95 | 1001.2 |
| 20260505081304 | 57 | 196 | 0.0 | 0.0 | 0.00 | 0.15 | 0.15 | 95 | 1001.2 |
| 20260505080801 | 58 | 183 | 0.0 | 0.0 | 0.00 | 0.15 | 0.15 | 95 | 1001.2 |
| 20260505080256 | 58 | 183 | 0.0 | 0.0 | 0.00 | 0.15 | 0.15 | 95 | 1001.2 |
| 20260505075752 | 57 | 186 | 0.0 | 0.0 | 0.00 | 0.15 | 0.15 | 96 | 1001.2 |
| 20260505075249 | 57 | 184 | 0.0 | 0.0 | 0.00 | 0.15 | 0.15 | 96 | 1000.9 |
| 20260505074747 | 57 | 189 | 0.0 | 0.0 | 0.00 | 0.15 | 0.15 | 96 | 1001.2 |
| 20260505074244 | 57 | 184 | 0.0 | 0.0 | 0.00 | 0.15 | 0.15 | 96 | 1000.9 |
| 20260505073741 | 57 | 183 | 0.0 | 0.0 | 0.00 | 0.15 | 0.15 | 96 | 1000.4 |
| 20260505073239 | 57 | 184 | 0.0 | 0.0 | 0.00 | 0.15 | 0.15 | 96 | 1000.9 |
| 20260505072735 | 57 | 187 | 0.0 | 0.0 | 0.00 | 0.15 | 0.15 | 96 | 1000.4 |
| 20260505072232 | 57 | 224 | 1.0 | 1.0 | 0.00 | 0.15 | 0.15 | 96 | 1000.4 |
| 20260505071727 | 57 | 187 | 0.0 | 0.0 | 0.00 | 0.15 | 0.15 | 96 | 1000.1 |
| 20260505071225 | 58 | 188 | 0.0 | 0.0 | 0.00 | 0.15 | 0.15 | 95 | 1000.1 |
| 20260505070722 | 58 | 186 | 0.0 | 0.0 | 0.00 | 0.15 | 0.15 | 95 | 1000.1 |
| 20260505070218 | 58 | 185 | 0.0 | 0.0 | 0.00 | 0.15 | 0.15 | 95 | 1000.1 |
| 20260505065714 | 58 | 188 | 0.0 | 0.0 | 0.00 | 0.15 | 0.15 | 95 | 1000.4 |
| 20260505065211 | 58 | 195 | 0.0 | 1.0 | 0.00 | 0.15 | 0.15 | 94 | 1000.4 |
| 20260505064708 | 58 | 183 | 0.0 | 0.0 | 0.00 | 0.15 | 0.15 | 94 | 1000.4 |
| 20260505064206 | 58 | 182 | 0.0 | 0.0 | 0.00 | 0.15 | 0.15 | 94 | 1000.9 |
| 20260505063703 | 58 | 205 | 2.0 | 2.0 | 0.00 | 0.15 | 0.15 | 94 | 1001.2 |
| 20260505063159 | 58 | 275 | 3.0 | 4.0 | 0.00 | 0.15 | 0.15 | 94 | 1001.2 |
| 20260505062655 | 59 | 206 | 2.0 | 3.0 | 0.00 | 0.15 | 0.15 | 93 | 1001.2 |
| 20260505062154 | 59 | 181 | 0.0 | 0.0 | 0.00 | 0.15 | 0.15 | 93 | 1000.9 |
| 20260505061650 | 59 | 288 | 4.0 | 6.0 | 0.07 | 0.15 | 0.15 | 93 | 1000.9 |
| 20260505061148 | 59 | 184 | 0.0 | 1.0 | 0.07 | 0.15 | 0.15 | 93 | 1000.1 |
| 20260505060645 | 59 | 194 | 3.0 | 3.0 | 0.00 | 0.14 | 0.14 | 93 | 1000.9 |
| 20260505060142 | 59 | 198 | 0.0 | 1.0 | 0.00 | 0.14 | 0.14 | 92 | 1000.9 |
| 20260505055637 | 59 | 196 | 4.0 | 4.0 | 0.00 | 0.14 | 0.14 | 92 | 1000.4 |
| 20260505055134 | 58 | 194 | 0.0 | 1.0 | 0.00 | 0.14 | 0.14 | 92 | 1000.1 |
| 20260505054632 | 58 | 179 | 0.0 | 0.0 | 0.05 | 0.14 | 0.14 | 93 | 1000.4 |
| 20260505054130 | 58 | 259 | 1.0 | 3.0 | 0.05 | 0.14 | 0.14 | 94 | 1000.4 |
| 20260505053627 | 58 | 202 | 3.0 | 3.0 | 0.00 | 0.13 | 0.13 | 94 | 1000.4 |
| 20260505053123 | 58 | 187 | 0.0 | 0.0 | 0.00 | 0.13 | 0.13 | 95 | 1000.4 |
| 20260505052620 | 58 | 202 | 2.0 | 2.0 | 0.00 | 0.13 | 0.13 | 95 | 1000.4 |
| 20260505052118 | 58 | 190 | 1.0 | 1.0 | 0.00 | 0.13 | 0.13 | 95 | 1001.2 |
| 20260505051614 | 58 | 185 | 0.0 | 0.0 | 0.00 | 0.13 | 0.13 | 94 | 1001.2 |
| 20260505051113 | 58 | 188 | 1.0 | 2.0 | 0.00 | 0.13 | 0.13 | 94 | 1001.6 |
| 20260505050610 | 58 | 182 | 1.0 | 1.0 | 0.00 | 0.13 | 0.13 | 93 | 1001.6 |
| 20260505050108 | 59 | 192 | 0.0 | 1.0 | 0.00 | 0.13 | 0.13 | 92 | 1001.6 |
| 20260505041538 | 66 | 241 | 5.0 | 7.0 | 0.00 | 0.00 | 0.00 | 72 | 1001.2 |
| 20260505041035 | 66 | 211 | 1.0 | 2.0 | 0.00 | 0.00 | 0.00 | 73 | 1000.9 |
| 20260505040532 | 66 | 250 | 1.0 | 2.0 | 0.00 | 0.00 | 0.00 | 72 | 1000.9 |
| 20260505040030 | 66 | 183 | 1.0 | 2.0 | 0.00 | 0.27 | 0.27 | 73 | 1000.9 |
| 20260505035525 | 66 | 200 | 1.0 | 1.0 | 0.00 | 0.27 | 0.27 | 73 | 1000.9 |
| 20260505035022 | 66 | 203 | 5.0 | 8.0 | 0.00 | 0.27 | 0.27 | 73 | 1000.4 |
| 20260505034519 | 66 | 215 | 1.0 | 1.0 | 0.00 | 0.27 | 0.27 | 73 | 1000.4 |
| 20260505034016 | 66 | 182 | 0.0 | 1.0 | 0.00 | 0.27 | 0.27 | 73 | 1000.4 |
| 20260505033513 | 66 | 183 | 1.0 | 2.0 | 0.00 | 0.27 | 0.27 | 73 | 1000.4 |
| 20260505033011 | 66 | 207 | 1.0 | 1.0 | 0.00 | 0.27 | 0.27 | 74 | 1000.9 |
| 20260505032508 | 66 | 194 | 3.0 | 3.0 | 0.00 | 0.27 | 0.27 | 74 | 1000.4 |
| 20260505032004 | 66 | 240 | 2.0 | 2.0 | 0.00 | 0.27 | 0.27 | 74 | 1000.9 |
| 20260505031502 | 65 | 247 | 2.0 | 3.0 | 0.00 | 0.27 | 0.27 | 77 | 1000.1 |
| 20260505030958 | 64 | 241 | 4.0 | 6.0 | 0.00 | 0.27 | 0.27 | 78 | 1000.4 |
| 20260505030455 | 63 | 181 | 0.0 | 0.0 | 0.00 | 0.27 | 0.27 | 84 | 1000.1 |
| 20260505025950 | 62 | 181 | 0.0 | 0.0 | 0.00 | 0.27 | 0.27 | 84 | 1000.4 |
| 20260505025447 | 60 | 181 | 0.0 | 0.0 | 0.00 | 0.27 | 0.27 | 89 | 1000.4 |
| 20260505024946 | 60 | 184 | 0.0 | 0.0 | 0.00 | 0.27 | 0.27 | 94 | 1000.4 |
| 20260505024443 | 60 | 182 | 0.0 | 0.0 | 0.00 | 0.27 | 0.27 | 94 | 1000.9 |
| 20260505023940 | 60 | 181 | 0.0 | 0.0 | 0.00 | 0.27 | 0.27 | 95 | 1001.2 |
| 20260505023437 | 59 | 188 | 0.0 | 0.0 | 0.00 | 0.27 | 0.27 | 95 | 1001.2 |
| 20260505022934 | 59 | 181 | 0.0 | 0.0 | 0.00 | 0.27 | 0.27 | 96 | 1000.9 |
| 20260505022432 | 59 | 192 | 1.0 | 1.0 | 0.00 | 0.27 | 0.27 | 96 | 1000.9 |
| 20260505021929 | 59 | 182 | 0.0 | 0.0 | 0.00 | 0.27 | 0.27 | 96 | 1000.9 |
| 20260505021425 | 59 | 185 | 0.0 | 0.0 | 0.00 | 0.27 | 0.27 | 96 | 1000.9 |
| 20260505020921 | 59 | 183 | 0.0 | 0.0 | 0.00 | 0.27 | 0.27 | 96 | 1000.9 |
| 20260505020416 | 59 | 202 | 0.0 | 1.0 | 0.00 | 0.27 | 0.27 | 96 | 1000.9 |
| 20260505015913 | 59 | 182 | 0.0 | 0.0 | 0.00 | 0.27 | 0.27 | 96 | 1000.4 |
| 20260505015411 | 59 | 181 | 0.0 | 0.0 | 0.00 | 0.27 | 0.27 | 96 | 1000.4 |
| 20260505014908 | 59 | 185 | 0.0 | 0.0 | 0.00 | 0.27 | 0.27 | 96 | 1000.4 |
| 20260505014405 | 59 | 178 | 0.0 | 0.0 | 0.00 | 0.27 | 0.27 | 96 | 1000.4 |
| 20260505013902 | 59 | 185 | 0.0 | 0.0 | 0.00 | 0.27 | 0.27 | 96 | 1000.4 |
| 20260505013358 | 59 | 184 | 0.0 | 0.0 | 0.00 | 0.27 | 0.27 | 96 | 1000.9 |
| 20260505012857 | 59 | 185 | 0.0 | 0.0 | 0.00 | 0.27 | 0.27 | 95 | 1000.4 |
| 20260505012354 | 60 | 184 | 0.0 | 0.0 | 0.00 | 0.27 | 0.27 | 95 | 1000.4 |
| 20260505011850 | 60 | 184 | 0.0 | 0.0 | 0.00 | 0.27 | 0.27 | 94 | 1000.4 |
| 20260505011347 | 60 | 186 | 0.0 | 0.0 | 0.00 | 0.27 | 0.27 | 94 | 1000.4 |
| 20260505010843 | 60 | 181 | 0.0 | 0.0 | 0.00 | 0.27 | 0.27 | 93 | 1000.4 |
| 20260505010339 | 60 | 183 | 1.0 | 1.0 | 0.07 | 0.27 | 0.27 | 92 | 1000.1 |
| 20260505005836 | 60 | 183 | 0.0 | 1.0 | 0.26 | 0.27 | 0.27 | 92 | 1000.1 |
| 20260505005332 | 61 | 153 | 2.0 | 2.0 | 0.00 | 0.23 | 0.23 | 92 | 1000.1 |
| 20260505004830 | 61 | 179 | 1.0 | 1.0 | 0.00 | 0.23 | 0.23 | 92 | 1000.1 |
| 20260505004326 | 60 | 196 | 2.0 | 3.0 | 0.00 | 0.23 | 0.23 | 92 | 1000.1 |
| 20260505003824 | 61 | 198 | 2.0 | 2.0 | 0.00 | 0.23 | 0.23 | 92 | 1000.1 |
| 20260505003321 | 61 | 201 | 1.0 | 1.0 | 0.00 | 0.23 | 0.23 | 92 | 999.8 |
| 20260505002817 | 60 | 181 | 0.0 | 0.0 | 0.00 | 0.23 | 0.23 | 93 | 999.8 |
| 20260505002314 | 61 | 177 | 0.0 | 0.0 | 0.00 | 0.23 | 0.23 | 93 | 1000.1 |
| 20260505001812 | 60 | 178 | 1.0 | 2.0 | 0.00 | 0.23 | 0.23 | 94 | 999.8 |
| 20260505001309 | 60 | 191 | 1.0 | 1.0 | 0.00 | 0.23 | 0.23 | 94 | 1000.1 |
| 20260505000806 | 60 | 173 | 1.0 | 2.0 | 0.17 | 0.23 | 0.23 | 94 | 1000.1 |
| 20260505000304 | 60 | 183 | 1.0 | 2.0 | 0.17 | 0.23 | 0.23 | 93 | 1000.4 |
| 20260504235800 | 60 | 213 | 1.0 | 2.0 | 0.00 | 0.20 | 0.20 | 93 | 1000.9 |
| 20260504235256 | 61 | 193 | 1.0 | 1.0 | 0.00 | 0.20 | 0.20 | 93 | 1000.9 |
| 20260504234754 | 61 | 198 | 1.0 | 1.0 | 0.00 | 0.20 | 0.20 | 92 | 1000.4 |
| 20260504234252 | 61 | 184 | 0.0 | 0.0 | 0.07 | 0.20 | 0.20 | 92 | 1000.4 |
| 20260504233747 | 61 | 179 | 0.0 | 0.0 | 0.24 | 0.20 | 0.20 | 90 | 1000.4 |
| 20260504233243 | 61 | 203 | 4.0 | 4.0 | 1.02 | 0.18 | 0.18 | 89 | 1000.9 |
| 20260504232740 | 63 | 188 | 2.0 | 2.0 | 0.90 | 0.15 | 0.15 | 87 | 1001.2 |
| 20260504232237 | 68 | 175 | 2.0 | 2.0 | 0.07 | 0.01 | 0.01 | 76 | 1001.2 |
| 20260504231734 | 75 | 272 | 4.0 | 9.0 | 0.00 | 0.00 | 0.00 | 52 | 999.8 |
| 20260504231231 | 75 | 181 | 1.0 | 1.0 | 0.00 | 0.00 | 0.00 | 52 | 999.1 |
| 20260504230726 | 75 | 168 | 2.0 | 3.0 | 0.00 | 0.00 | 0.00 | 52 | 999.4 |
| 20260504230225 | 75 | 195 | 2.0 | 3.0 | 0.00 | 0.00 | 0.00 | 51 | 999.8 |
| 20260504225724 | 76 | 254 | 2.0 | 2.0 | 0.00 | 0.00 | 0.00 | 50 | 999.8 |
| 20260504225220 | 76 | 190 | 2.0 | 3.0 | 0.00 | 0.00 | 0.00 | 50 | 999.8 |
| 20260504224717 | 77 | 218 | 3.0 | 4.0 | 0.00 | 0.00 | 0.00 | 49 | 999.1 |
| 20260504224214 | 77 | 208 | 5.0 | 7.0 | 0.00 | 0.00 | 0.00 | 49 | 999.4 |
| 20260504223710 | 77 | 226 | 4.0 | 6.0 | 0.00 | 0.00 | 0.00 | 49 | 999.1 |
| 20260504223206 | 77 | 287 | 4.0 | 10.0 | 0.00 | 0.00 | 0.00 | 49 | 999.1 |
| 20260504222703 | 77 | 160 | 2.0 | 3.0 | 0.00 | 0.00 | 0.00 | 48 | 999.4 |
| 20260504222200 | 77 | 274 | 5.0 | 7.0 | 0.00 | 0.00 | 0.00 | 48 | 999.4 |
| 20260504221657 | 77 | 211 | 4.0 | 4.0 | 0.00 | 0.00 | 0.00 | 48 | 999.4 |
| 20260504221155 | 77 | 191 | 3.0 | 4.0 | 0.00 | 0.00 | 0.00 | 48 | 999.8 |
| 20260504220650 | 77 | 206 | 5.0 | 7.0 | 0.00 | 0.00 | 0.00 | 48 | 999.8 |
| 20260504220149 | 77 | 297 | 3.0 | 3.0 | 0.00 | 0.00 | 0.00 | 48 | 999.8 |
| 20260504215644 | 77 | 195 | 2.0 | 3.0 | 0.00 | 0.00 | 0.00 | 47 | 999.8 |
| 20260504215142 | 77 | 228 | 2.0 | 3.0 | 0.00 | 0.00 | 0.00 | 47 | 1000.1 |
| 20260504214637 | 77 | 213 | 3.0 | 4.0 | 0.00 | 0.00 | 0.00 | 47 | 999.8 |
| 20260504214134 | 77 | 215 | 3.0 | 4.0 | 0.00 | 0.00 | 0.00 | 46 | 1000.1 |
| 20260504213631 | 77 | 244 | 2.0 | 3.0 | 0.00 | 0.00 | 0.00 | 46 | 1000.1 |
| 20260504213128 | 76 | 190 | 4.0 | 4.0 | 0.00 | 0.00 | 0.00 | 45 | 1000.1 |
| 20260504212624 | 77 | 207 | 2.0 | 3.0 | 0.00 | 0.00 | 0.00 | 45 | 1000.4 |
| 20260504212121 | 77 | 178 | 2.0 | 2.0 | 0.00 | 0.00 | 0.00 | 46 | 1000.1 |
| 20260504211619 | 77 | 274 | 6.0 | 10.0 | 0.00 | 0.00 | 0.00 | 44 | 1000.1 |
| 20260504211115 | 77 | 259 | 5.0 | 9.0 | 0.00 | 0.00 | 0.00 | 44 | 1000.1 |
| 20260504210613 | 76 | 226 | 6.0 | 8.0 | 0.00 | 0.00 | 0.00 | 44 | 1000.4 |
| 20260504210109 | 77 | 204 | 4.0 | 10.0 | 0.00 | 0.00 | 0.00 | 43 | 1000.9 |
| 20260504205606 | 77 | 246 | 6.0 | 11.0 | 0.00 | 0.00 | 0.00 | 42 | 1000.4 |
| 20260504205104 | 76 | 289 | 4.0 | 6.0 | 0.00 | 0.00 | 0.00 | 42 | 1000.9 |
| 20260504204602 | 77 | 309 | 4.0 | 7.0 | 0.00 | 0.00 | 0.00 | 42 | 1000.9 |
| 20260504204101 | 77 | 279 | 3.0 | 4.0 | 0.00 | 0.00 | 0.00 | 41 | 1000.9 |
| 20260504203559 | 77 | 185 | 9.0 | 10.0 | 0.00 | 0.00 | 0.00 | 39 | 1000.9 |
| 20260504203056 | 77 | 178 | 3.0 | 6.0 | 0.00 | 0.00 | 0.00 | 40 | 1000.9 |
| 20260504202551 | 77 | 217 | 2.0 | 3.0 | 0.00 | 0.00 | 0.00 | 39 | 1001.2 |
| 20260504202048 | 77 | 200 | 3.0 | 3.0 | 0.00 | 0.00 | 0.00 | 39 | 1000.9 |
| 20260504201545 | 78 | 196 | 8.0 | 13.0 | 0.00 | 0.00 | 0.00 | 38 | 1001.2 |
| 20260504201043 | 77 | 202 | 4.0 | 6.0 | 0.00 | 0.00 | 0.00 | 38 | 1001.2 |
| 20260504200539 | 78 | 213 | 3.0 | 3.0 | 0.00 | 0.00 | 0.00 | 38 | 1001.6 |
| 20260504200036 | 77 | 192 | 4.0 | 6.0 | 0.00 | 0.00 | 0.00 | 38 | 1001.2 |
| 20260504195532 | 77 | 186 | 3.0 | 3.0 | 0.00 | 0.00 | 0.00 | 39 | 1001.2 |
| 20260504195029 | 78 | 203 | 4.0 | 7.0 | 0.00 | 0.00 | 0.00 | 38 | 1001.2 |
| 20260504194525 | 77 | 234 | 6.0 | 8.0 | 0.00 | 0.00 | 0.00 | 38 | 1001.6 |
| 20260504194021 | 76 | 219 | 6.0 | 7.0 | 0.00 | 0.00 | 0.00 | 38 | 1001.6 |
| 20260504193518 | 78 | 182 | 1.0 | 2.0 | 0.00 | 0.00 | 0.00 | 38 | 1001.2 |
| 20260504193017 | 77 | 182 | 1.0 | 2.0 | 0.00 | 0.00 | 0.00 | 39 | 1001.2 |
| 20260504192514 | 78 | 286 | 4.0 | 11.0 | 0.00 | 0.00 | 0.00 | 38 | 1001.6 |
| 20260504192012 | 78 | 205 | 2.0 | 3.0 | 0.00 | 0.00 | 0.00 | 36 | 1001.6 |
| 20260504191510 | 77 | 276 | 5.0 | 6.0 | 0.00 | 0.00 | 0.00 | 37 | 1001.6 |
| 20260504191006 | 78 | 302 | 5.0 | 9.0 | 0.00 | 0.00 | 0.00 | 37 | 1001.6 |
| 20260504190502 | 77 | 207 | 3.0 | 4.0 | 0.00 | 0.00 | 0.00 | 37 | 1001.9 |
| 20260504185958 | 77 | 195 | 4.0 | 8.0 | 0.00 | 0.00 | 0.00 | 36 | 1001.9 |
| 20260504185455 | 78 | 198 | 6.0 | 8.0 | 0.00 | 0.00 | 0.00 | 35 | 1001.9 |
| 20260504184952 | 78 | 148 | 3.0 | 3.0 | 0.00 | 0.00 | 0.00 | 36 | 1001.9 |
| 20260504184447 | 77 | 214 | 3.0 | 3.0 | 0.00 | 0.00 | 0.00 | 36 | 1001.9 |
| 20260504183943 | 78 | 219 | 4.0 | 6.0 | 0.00 | 0.00 | 0.00 | 35 | 1001.9 |
| 20260504183440 | 77 | 125 | 1.0 | 2.0 | 0.00 | 0.00 | 0.00 | 37 | 1001.9 |
| 20260504182938 | 77 | 232 | 3.0 | 6.0 | 0.00 | 0.00 | 0.00 | 36 | 1002.2 |
| 20260504182435 | 77 | 273 | 3.0 | 3.0 | 0.00 | 0.00 | 0.00 | 36 | 1002.2 |
| 20260504181932 | 77 | 252 | 3.0 | 4.0 | 0.00 | 0.00 | 0.00 | 36 | 1001.9 |
| 20260504181429 | 77 | 202 | 3.0 | 4.0 | 0.00 | 0.00 | 0.00 | 36 | 1001.9 |
| 20260504180928 | 77 | 274 | 3.0 | 4.0 | 0.00 | 0.00 | 0.00 | 36 | 1002.2 |
| 20260504180426 | 77 | 264 | 3.0 | 3.0 | 0.00 | 0.00 | 0.00 | 38 | 1002.2 |
| 20260504175924 | 77 | 190 | 2.0 | 2.0 | 0.00 | 0.00 | 0.00 | 37 | 1002.6 |
| 20260504175421 | 77 | 233 | 9.0 | 14.0 | 0.00 | 0.00 | 0.00 | 36 | 1002.6 |
| 20260504174918 | 77 | 226 | 1.0 | 2.0 | 0.00 | 0.00 | 0.00 | 40 | 1002.6 |
| 20260504174416 | 75 | 182 | 2.0 | 3.0 | 0.00 | 0.00 | 0.00 | 42 | 1002.6 |
| 20260504173913 | 76 | 191 | 7.0 | 10.0 | 0.00 | 0.00 | 0.00 | 42 | 1002.9 |
| 20260504173409 | 75 | 280 | 4.0 | 4.0 | 0.00 | 0.00 | 0.00 | 42 | 1002.9 |
| 20260504172907 | 75 | 194 | 4.0 | 7.0 | 0.00 | 0.00 | 0.00 | 45 | 1002.9 |
| 20260504172403 | 75 | 170 | 4.0 | 6.0 | 0.00 | 0.00 | 0.00 | 43 | 1002.9 |
| 20260504171859 | 75 | 204 | 1.0 | 2.0 | 0.00 | 0.00 | 0.00 | 44 | 1003.2 |
| 20260504171357 | 74 | 161 | 4.0 | 7.0 | 0.00 | 0.00 | 0.00 | 46 | 1002.9 |
| 20260504170854 | 74 | 183 | 5.0 | 8.0 | 0.00 | 0.00 | 0.00 | 46 | 1003.2 |
| 20260504170350 | 74 | 221 | 6.0 | 8.0 | 0.00 | 0.00 | 0.00 | 46 | 1003.6 |
| 20260504160309 | 71 | 187 | 2.0 | 3.0 | 0.00 | 0.00 | 0.00 | 52 | 1004.3 |
| 20260504150734 | 66 | 251 | 3.0 | 4.0 | 0.00 | 0.00 | 0.00 | 57 | 1004.6 |
| 20260504150231 | 65 | 254 | 1.0 | 2.0 | 0.00 | 0.00 | 0.00 | 58 | 1004.6 |
| 20260504141200 | 62 | 193 | 1.0 | 2.0 | 0.00 | 0.00 | 0.00 | 64 | 1004.6 |
| 20260504140657 | 61 | 219 | 2.0 | 3.0 | 0.00 | 0.00 | 0.00 | 65 | 1004.9 |
| 20260504140152 | 61 | 183 | 1.0 | 1.0 | 0.00 | 0.00 | 0.00 | 65 | 1004.9 |
| 20260504130620 | 56 | 268 | 3.0 | 6.0 | 0.00 | 0.00 | 0.00 | 71 | 1005.6 |
| 20260504130117 | 56 | 267 | 5.0 | 7.0 | 0.00 | 0.00 | 0.00 | 71 | 1005.6 |
| 20260504110509 | 49 | 192 | 1.0 | 1.0 | 0.00 | 0.00 | 0.00 | 81 | 1005.6 |
| 20260504100431 | 48 | 181 | 0.0 | 1.0 | 0.00 | 0.00 | 0.00 | 81 | 1005.6 |